Location: Street
(51.1247°N, 2.7429°W)
Time: 12:27:54
(UTC+01:00)

STRAND 1 - Visible Passes

Search period start: 28 March 2023 00:00
Search period end: 07 April 2023 00:00
Orbit: 766 x 780 km, 98.4° (Epoch: 27 March)

Date Brightness Start Highest point End Pass type
(mag) Time Alt. Az. Time Alt. Az. Time Alt. Az.
28 Mar ? 04:54:10 10° ENE 04:56:10 12° NE 04:58:11 10° NNE visible
28 Mar ? 20:13:09 10° NNE 20:18:18 84° ESE 20:23:24 10° SSW visible
28 Mar ? 21:53:22 10° NNW 21:56:52 19° NW 22:00:20 10° W visible
29 Mar ? 05:55:36 10° SE 06:00:08 33° ENE 06:04:41 10° N visible
29 Mar ? 21:18:20 10° N 21:22:49 32° WNW 21:27:16 10° WSW visible
30 Mar ? 05:22:30 10° E 05:26:05 20° NE 05:29:40 10° N visible
30 Mar ? 20:43:36 10° N 20:48:37 57° WNW 20:53:35 10° SSW visible
30 Mar ? 22:24:57 10° NNW 22:26:45 12° NW 22:28:33 10° WNW visible
31 Mar ? 04:50:31 10° ENE 04:52:11 12° NE 04:53:51 10° NNE visible
31 Mar ? 20:09:06 10° NNE 20:14:14 79° ESE 20:19:20 10° SSW visible
31 Mar ? 21:49:13 10° N 21:52:51 20° NW 21:56:28 10° WSW visible
01 Apr ? 05:51:39 10° ESE 05:56:07 31° ENE 06:00:34 10° N visible
01 Apr ? 21:14:13 10° N 21:18:47 34° WNW 21:23:19 10° SW visible
02 Apr ? 05:18:39 10° E 05:22:05 18° NE 05:25:30 10° NNE visible
02 Apr ? 20:39:31 10° N 20:44:33 61° WNW 20:49:34 10° SSW visible
02 Apr ? 22:20:39 10° NNW 22:22:45 13° NW 22:24:52 10° WNW visible
03 Apr ? 04:46:58 10° ENE 04:48:11 11° NE 04:49:24 10° NNE visible
03 Apr ? 21:45:04 10° N 21:48:50 21° WNW 21:52:35 10° WSW visible
04 Apr ? 05:47:43 10° ESE 05:52:04 29° ENE 05:56:26 10° N visible
04 Apr ? 21:10:06 10° N 21:14:44 36° WNW 21:19:21 10° SW visible
05 Apr ? 05:14:47 10° E 05:18:03 17° NE 05:21:19 10° NNE visible
05 Apr ? 20:35:25 10° N 20:40:29 66° WNW 20:45:31 10° SSW visible
05 Apr ? 22:16:22 10° NNW 22:18:44 13° NW 22:21:07 10° WNW visible
06 Apr ? 04:43:47 10° NE 04:44:11 10° NE 04:44:36 10° NE visible
06 Apr ? 21:40:54 10° N 21:44:47 22° WNW 21:48:40 10° WSW visible
